User: anonymous   Login
Location: Unspecified
(0.0000°N, 0.0000°E)
Time: 02:06:25
(UTC+00:00)
Language:

SWAYAM - Orbit

View from above orbital plane
View from above orbital plane
View from above satellite
View from above satellite

Ground track
Ground track

The orbit data is extracted from the following two-line orbital elements,

1 41607U 16040J   18055.10954723 +.00001303 +00000-0 +60298-4 0  9995
2 41607 097.4279 119.6145 0012284 275.3234 084.6600 15.21854471092900
Epoch (UTC): 24 February 2018 02:37:44
Eccentricity: 0.0012284
inclination: 97.4279°
perigee height: 492 km
apogee height: 509 km
right ascension of ascending node: 119.6145°
argument of perigee: 275.3234°
revolutions per day: 15.21854471
mean anomaly at epoch: 84.6600°
orbit number at epoch: 9290

The dashed part of the orbit path shows where the satellite is in the earth's shadow,  

DLR